Location: *
(44.1392°N, 4.8079°E)
Time: 15:46:01
(UTC+00:00)

NOSS 5 (C) - Pass Details

Date: 25 October 2021
Orbit: 381 x 1717 km, 63.3° (Epoch: 29 November)

Event Time Altitude Azimuth Distance (km) Brightness Sun altitude
Rises 19:03:49 0° 321° (NW) 2,281 8.7 -26.3°
Reaches altitude 10° 19:05:42 10° 321° (NW) 1,462 7.6 -26.6°
Enters shadow 19:06:34 18° 319° (NW) 1,100 6.9 -26.8°
